Simultaneous Nadir Overpasses (SNOs) Predictions

Prediction of SNOs between GOES-15 and TERRA Satellite Orbit:

Table of predicted SNOs for the next 14.0 days since TLE Epoch: 9/29/2013
Index Date Time (GOES-15) GOES-15 Lat,Lon TERRA Lat,Lon Distance(km) Time Diff (sec)
1 09/29/2013 19:27:48 -0.39,-135.36 -0.65,-134.23 130.02 80
2 09/30/2013 07:49:11 0.39,-135.36 -0.50,-139.41 460.57 80
3 10/01/2013 19:15:34 -0.38,-135.33 -1.23,-131.25 462.85 80
4 10/02/2013 07:36:58 0.38,-135.32 0.13,-136.45 127.96 80
5 10/04/2013 07:22:05 0.38,-135.28 0.77,-133.49 204.05 80
6 10/04/2013 19:43:20 -0.38,-135.26 0.32,-138.64 384.61 80
7 10/06/2013 19:31:06 -0.38,-135.21 -0.27,-135.67 53.38 80
8 10/08/2013 19:21:33 -0.38,-135.15 -0.92,-132.71 277.02 80
9 10/09/2013 07:42:56
